FW3601 Weather Reports


time (UTC)temp
F
wind
direction
speed
knots
gust
knots
rain 1hr
in
rain 24hr
in
rain mn
in
humidity
%
barometer
mb
20260502161205 70 237 9.6 15.6 0.00 0.00 0.00 43 1010.0
20260502160204 70 221 9.6 15.6 0.00 0.00 0.00 42 1010.1
20260502152205 70 217 9.6 17.4 0.00 0.00 0.00 41 1010.6
20260502151713 70 167 9.6 17.4 0.00 0.00 0.00 41 1010.7
20260502151204 71 221 8.7 16.5 0.00 0.00 0.00 42 1010.7
20260502150704 71 236 7.8 16.5 0.00 0.00 0.00 41 1010.7
20260502150205 71 198 7.0 14.8 0.00 0.00 0.00 41 1010.9
20260502130706 71 226 7.8 15.6 0.00 0.00 0.00 39 1012.1
20260502130204 71 217 7.0 15.6 0.00 0.00 0.00 38 1011.9
20260502123704 71 234 9.6 20.0 0.00 0.00 0.00 37 1012.3
20260502123205 71 232 9.6 20.0 0.00 0.00 0.00 38 1012.3
20260502122704 71 271 8.7 20.0 0.00 0.00 0.00 35 1012.3
20260502122205 71 250 7.8 16.5 0.00 0.00 0.00 37 1012.4
20260502121204 71 268 8.7 19.1 0.00 0.00 0.00 36 1012.5
20260502120704 71 205 8.7 20.0 0.00 0.00 0.00 38 1012.4
20260502120204 71 225 10.4 20.0 0.00 0.00 0.00 39 1012.5
20260502115705 71 227 11.3 20.0 0.00 0.00 0.00 36 1012.6
20260502115204 71 244 11.3 20.9 0.00 0.00 0.00 36 1012.6
20260502114705 71 214 11.3 22.6 0.00 0.00 0.00 37 1012.8
20260502114207 70 240 11.3 22.6 0.00 0.00 0.00 38 1012.7
20260502113204 70 213 12.2 22.6 0.00 0.00 0.00 39 1012.9
20260502112205 71 221 8.7 19.1 0.00 0.00 0.00 41 1012.9
20260502111704 70 258 8.7 20.0 0.00 0.00 0.00 43 1012.9
20260502111205 70 217 10.4 20.0 0.00 0.00 0.00 41 1013.0
20260502110704 70 242 11.3 20.0 0.00 0.00 0.00 40 1013.2
20260502110204 70 216 10.4 19.1 0.00 0.00 0.00 41 1013.2
20260502105704 70 192 8.7 18.2 0.00 0.00 0.00 41 1013.2
20260502105204 70 229 10.4 19.1 0.00 0.00 0.00 42 1013.2
20260502103704 69 218 11.3 21.7 0.00 0.00 0.00 41 1013.2
20260502103205 69 219 10.4 21.7 0.00 0.00 0.00 45 1013.3
20260502102704 69 209 9.6 20.0 0.00 0.00 0.00 43 1013.4
20260502102205 69 223 9.6 20.0 0.00 0.00 0.00 44 1013.4
20260502101205 69 238 9.6 18.2 0.00 0.00 0.00 45 1013.5
20260502100204 68 182 8.7 17.4 0.00 0.00 0.00 44 1013.7
20260502091205 65 221 7.8 13.0 0.00 0.00 0.00 54 1014.1
20260502090704 65 215 7.0 13.0 0.00 0.00 0.00 53 1014.2
20260502090204 65 174 6.1 13.0 0.00 0.00 0.00 53 1014.2
20260502071207 58 215 6.1 13.0 0.00 0.00 0.00 63 1015.2
20260502070706 58 194 7.0 13.0 0.00 0.00 0.00 63 1015.3
20260502070208 57 193 6.1 11.3 0.00 0.00 0.00 64 1015.3
20260502065705 57 183 6.1 12.2 0.00 0.00 0.00 64 1015.4
20260502065205 57 162 6.1 12.2 0.00 0.00 0.00 65 1015.4
20260502064208 56 177 6.1 12.2 0.00 0.00 0.00 65 1015.5
20260502063705 56 182 5.2 12.2 0.00 0.00 0.00 65 1015.6
20260502063206 56 231 4.3 12.2 0.00 0.00 0.00 66 1015.6
20260502062707 56 173 5.2 8.7 0.00 0.00 0.00 66 1015.7
20260502062208 55 223 5.2 11.3 0.00 0.00 0.00 67 1015.6
20260502060704 54 230 5.2 8.7 0.00 0.00 0.00 69 1015.9
20260502055705 53 236 5.2 11.3 0.00 0.00 0.00 71 1015.9
20260502055206 53 203 5.2 11.3 0.00 0.00 0.00 71 1016.0
20260502054725 53 206 5.2 8.7 0.00 0.00 0.00 72 1016.0
20260502054206 53 202 4.3 9.6 0.00 0.00 0.00 73 1016.1
20260502053704 52 236 5.2 9.6 0.00 0.00 0.00 74 1016.1
20260502053205 52 188 5.2 9.6 0.00 0.00 0.00 75 1016.2
20260502052706 51 192 4.3 8.7 0.00 0.00 0.00 75 1016.2
20260502052205 51 199 3.5 6.1 0.00 0.00 0.00 76 1016.3
20260502051721 50 194 2.6 6.1 0.00 0.00 0.00 78 1016.4
20260502051206 50 138 2.6 6.1 0.00 0.00 0.00 79 1016.4
20260502050706 49 190 1.7 5.2 0.00 0.00 0.00 80 1016.4
20260502050206 49 190 1.7 4.3 0.00 0.00 0.00 81 1016.5
20260502045706 48 171 0.9 4.3 0.00 0.00 0.00 81 1016.6
20260502045205 48 182 0.9 4.3 0.00 0.00 0.00 81 1016.7
20260502044723 47 183 0.9 4.3 0.00 0.00 0.00 81 1016.7
20260502044206 47 213 0.9 3.5 0.00 0.00 0.00 82 1016.7
20260502043706 47 213 0.9 3.5 0.00 0.00 0.00 82 1016.8
20260502043209 47 221 0.9 3.5 0.00 0.00 0.00 83 1016.9
20260502042709 46 222 0.9 3.5 0.00 0.00 0.00 84 1016.9
20260502042206 46 222 0.9 3.5 0.00 0.00 0.00 84 1016.9
20260502042016 46 222 0.9 1.7 0.00 0.00 0.00 84 1017.0
20260502041206 45 222 0.0 1.7 0.00 0.00 0.00 84 1017.2
20260502040705 45 222 0.0 0.9 0.00 0.00 0.00 84 1017.3
20260502035706 44 223 0.0 2.6 0.00 0.00 0.00 84 1017.3
20260502034211 44 222 0.0 0.9 0.00 0.00 0.00 82 1017.5
20260502033710 45 222 0.0 3.5 0.00 0.00 0.00 80 1017.5
20260502032705 46 222 0.9 3.5 0.00 0.00 0.00 78 1017.6
20260502032206 47 222 0.9 5.2 0.00 0.00 0.00 77 1017.7
20260502031205 48 195 2.6 7.0 0.00 0.00 0.00 79 1017.8
20260502030704 48 196 3.5 7.0 0.00 0.00 0.00 79 1017.9
20260502025706 47 188 2.6 4.3 0.00 0.00 0.00 80 1018.0
20260502025205 47 190 1.7 4.3 0.00 0.00 0.00 80 1018.0
20260502023705 46 225 2.6 4.3 0.00 0.00 0.00 80 1018.3
20260502023204 46 229 1.7 4.3 0.00 0.00 0.00 80 1018.3
20260502022705 46 169 1.7 4.3 0.00 0.00 0.00 81 1018.3
20260502022206 46 212 0.9 3.5 0.00 0.00 0.00 81 1018.2
20260502021714 45 178 0.9 5.2 0.00 0.00 0.00 78 1018.3
20260502021205 46 178 0.9 5.2 0.00 0.00 0.00 78 1018.4
20260502020705 46 178 1.7 5.2 0.00 0.00 0.00 79 1018.5
20260502020209 46 178 0.9 3.5 0.00 0.00 0.00 79 1018.5
20260502015207 46 190 0.9 2.6 0.00 0.00 0.00 77 1018.7
20260502014209 47 190 0.9 3.5 0.00 0.00 0.00 76 1018.9
20260502013709 47 190 1.7 3.5 0.00 0.00 0.00 76 1018.9
20260502013206 47 190 0.9 3.5 0.00 0.00 0.00 75 1019.0
20260502012210 48 190 1.7 4.3 0.00 0.00 0.00 74 1019.0
20260502012020 48 190 1.7 5.2 0.00 0.00 0.00 73 1019.1
20260502011207 48 189 2.6 6.1 0.00 0.00 0.00 73 1019.1
20260502010707 49 219 2.6 8.7 0.00 0.00 0.00 73 1019.1
20260502010209 49 203 3.5 8.7 0.00 0.00 0.00 73 1019.1
20260502005712 49 159 4.3 8.7 0.00 0.00 0.00 72 1019.3
20260502005208 49 178 4.3 8.7 0.00 0.00 0.00 73 1019.2
20260502004208 48 190 2.6 7.0 0.00 0.00 0.00 75 1019.4
20260502003205 46 190 0.9 2.6 0.00 0.00 0.00 78 1019.5
20260502002709 45 196 0.0 2.6 0.00 0.00 0.00 75 1019.6
20260502002510 46 196 0.0 4.3 0.00 0.00 0.00 74 1019.6
20260502001206 47 196 0.9 3.5 0.00 0.00 0.00 74 1019.7
20260502000706 47 198 0.9 3.5 0.00 0.00 0.00 74 1019.9
20260502000206 47 198 1.7 3.5 0.00 0.00 0.00 73 1020.0
20260501235206 47 198 0.9 2.6 0.00 0.00 0.00 72 1020.1
20260501235015 47 198 1.7 2.6 0.00 0.00 0.00 72 1020.0
20260501234208 47 198 1.7 4.3 0.00 0.00 0.00 71 1020.1
20260501233705 48 198 1.7 4.3 0.00 0.00 0.00 70 1020.1
20260501233206 48 198 1.7 3.5 0.00 0.00 0.00 70 1020.2
20260501232705 48 197 0.9 3.5 0.00 0.00 0.00 70 1020.2
20260501232209 48 196 0.9 3.5 0.00 0.00 0.00 71 1020.2
20260501232017 48 202 0.9 2.6 0.00 0.00 0.00 70 1020.2
20260501230705 49 202 0.9 2.6 0.00 0.00 0.00 67 1020.3
20260501230205 50 202 0.9 5.2 0.00 0.00 0.00 66 1020.3
20260501225706 51 201 0.9 5.2 0.00 0.00 0.00 65 1020.4
20260501225015 50 190 1.7 3.5 0.00 0.00 0.00 65 1020.5
20260501224205 50 192 0.9 3.5 0.00 0.00 0.00 66 1020.6
20260501223705 50 192 0.9 5.2 0.00 0.00 0.00 66 1020.6
20260501222705 50 193 1.7 3.5 0.00 0.00 0.00 66 1020.7
20260501221721 49 197 0.9 3.5 0.00 0.00 0.00 68 1020.7
20260501221205 49 197 0.0 1.7 0.00 0.00 0.00 68 1020.7
20260501220704 49 197 0.9 5.2 0.00 0.00 0.00 67 1020.7
20260501220213 50 197 0.9 5.2 0.00 0.00 0.00 66 1020.7
20260501215707 51 198 0.9 5.2 0.00 0.00 0.00 65 1020.7
20260501215205 51 200 1.7 4.3 0.00 0.00 0.00 64 1020.8
20260501214725 51 201 1.7 5.2 0.00 0.00 0.00 63 1020.8
20260501214208 52 189 1.7 5.2 0.00 0.00 0.00 62 1020.9
20260501213704 52 188 1.7 5.2 0.00 0.00 0.00 62 1021.0
20260501213205 52 187 2.6 5.2 0.00 0.00 0.00 61 1020.9
20260501212705 52 227 2.6 7.0 0.00 0.00 0.00 60 1021.1
20260501211722 52 184 2.6 6.1 0.00 0.00 0.00 60 1021.1
20260501211205 52 188 1.7 5.2 0.00 0.00 0.00 61 1021.2
20260501210705 52 182 0.9 3.5 0.00 0.00 0.00 61 1021.2
20260501210208 52 182 0.9 3.5 0.00 0.00 0.00 61 1021.3
20260501205705 52 184 1.7 4.3 0.00 0.00 0.00 60 1021.3
20260501205205 52 184 1.7 4.3 0.00 0.00 0.00 61 1021.4
20260501204206 52 222 1.7 4.3 0.00 0.00 0.00 61 1021.5
20260501203705 52 222 1.7 4.3 0.00 0.00 0.00 60 1021.6
20260501203205 52 223 1.7 3.5 0.00 0.00 0.00 60 1021.6
20260501202206 52 233 0.9 2.6 0.00 0.00 0.00 60 1021.7
20260501201717 52 233 0.9 2.6 0.00 0.00 0.00 60 1021.7
20260501201204 52 234 0.9 3.5 0.00 0.00 0.00 60 1021.7
20260501200706 52 234 0.9 3.5 0.00 0.00 0.00 60 1021.7
20260501195704 53 234 1.7 2.6 0.00 0.00 0.00 59 1021.9
20260501194705 53 234 1.7 4.3 0.00 0.00 0.00 57 1021.9
20260501194207 54 234 1.7 4.3 0.00 0.00 0.00 57 1021.9
20260501193705 54 234 1.7 5.2 0.00 0.00 0.00 56 1022.0
20260501192705 54 218 2.6 5.2 0.00 0.00 0.00 55 1022.2
20260501192205 54 218 2.6 4.3 0.00 0.00 0.00 55 1022.2
20260501191709 55 223 2.6 4.3 0.00 0.00 0.00 55 1022.2
20260501190705 55 241 1.7 2.6 0.00 0.00 0.00 55 1022.2
20260501190205 56 242 1.7 3.5 0.00 0.00 0.00 54 1022.3
20260501185706 56 242 1.7 4.3 0.00 0.00 0.00 52 1022.3
20260501185204 57 242 1.7 7.0 0.00 0.00 0.00 52 1022.2
20260501184207 57 219 1.7 4.3 0.00 0.00 0.00 50 1022.2
20260501183705 58 237 1.7 7.0 0.00 0.00 0.00 50 1022.2
20260501183207 58 237 1.7 12.2 0.00 0.00 0.00 49 1022.3
20260501182205 59 234 4.3 9.6 0.00 0.00 0.00 47 1022.3
20260501181713 59 274 4.3 13.9 0.00 0.00 0.00 46 1022.3
20260501181205 60 228 5.2 13.9 0.00 0.00 0.00 46 1022.4
20260501180705 60 242 5.2 13.9 0.00 0.00 0.00 45 1022.4
20260501180207 60 224 6.1 13.0 0.00 0.00 0.00 44 1022.4
20260501175706 61 255 6.1 13.0 0.00 0.00 0.00 44 1022.4
20260501175205 61 232 5.2 11.3 0.00 0.00 0.00 44 1022.4
20260501174716 61 284 5.2 11.3 0.00 0.00 0.00 44 1022.5
20260501174206 62 244 5.2 11.3 0.00 0.00 0.00 44 1022.5
20260501173704 62 225 4.3 11.3 0.00 0.00 0.00 43 1022.4
20260501173204 62 240 5.2 11.3 0.00 0.00 0.00 43 1022.5
20260501172705 62 259 5.2 12.2 0.00 0.00 0.00 43 1022.5
20260501171710 63 227 6.1 13.0 0.00 0.00 0.00 43 1022.5
20260501171205 63 215 7.0 13.0 0.00 0.00 0.00 42 1022.6
20260501170704 63 196 5.2 11.3 0.00 0.00 0.00 42 1022.7
20260501170206 64 209 5.2 11.3 0.00 0.00 0.00 43 1022.7
20260501165705 64 235 6.1 12.2 0.00 0.00 0.00 43 1022.7
20260501163705 64 220 7.8 16.5 0.00 0.00 0.00 42 1022.9